Time,TemperatureF,DewpointF,PressureIn,WindDirection,WindDirectionDegrees,WindSpeedMPH,WindSpeedGustMPH,Humidity,HourlyPrecipIn,Conditions,Clouds,dailyrainin,SoftwareType,DateUTC
2013-01-26 00:02:00,43.5,34.4,29.66,SSW,203,4.4,4.6,70,0.00,,,0.00,WUHU216HW,2013-01-25 23:02:00,
2013-01-26 00:07:00,43.5,34.0,29.65,SSW,203,4.0,4.6,69,0.00,,,0.00,WUHU216HW,2013-01-25 23:07:00,
2013-01-26 00:12:00,43.8,33.9,29.65,SSW,203,2.9,4.4,68,0.00,,,0.00,WUHU216HW,2013-01-25 23:12:00,
2013-01-26 00:17:00,43.8,33.9,29.66,South,180,2.4,3.5,68,0.00,,,0.00,WUHU216HW,2013-01-25 23:17:00,
2013-01-26 00:22:00,43.8,33.9,29.66,North,0,1.3,3.5,68,0.00,,,0.00,WUHU216HW,2013-01-25 23:22:00,
2013-01-26 00:27:00,43.3,33.8,29.66,ENE,68,0.0,3.3,69,0.00,,,0.00,WUHU216HW,2013-01-25 23:27:00,
2013-01-26 00:32:00,43.1,33.7,29.66,SSE,158,2.2,2.2,69,0.00,,,0.00,WUHU216HW,2013-01-25 23:32:00,
2013-01-26 00:37:00,43.3,33.8,29.66,NNE,23,1.5,3.5,69,0.00,,,0.00,WUHU216HW,2013-01-25 23:37:00,
2013-01-26 00:42:00,42.6,33.7,29.66,NNW,338,2.2,3.5,70,0.00,,,0.00,WUHU216HW,2013-01-25 23:42:00,
2013-01-26 00:47:00,41.7,33.5,29.66,ENE,68,1.7,2.2,72,0.00,,,0.00,WUHU216HW,2013-01-25 23:47:00,
2013-01-26 00:52:00,41.5,33.5,29.66,ENE,68,1.1,2.2,73,0.00,,,0.00,WUHU216HW,2013-01-25 23:52:00,
2013-01-26 00:57:00,41.5,33.1,29.66,NNE,23,0.0,2.2,72,0.00,,,0.00,WUHU216HW,2013-01-25 23:57:00,
2013-01-26 01:02:00,41.3,33.3,29.66,ESE,113,1.1,2.6,73,0.00,,,0.00,WUHU216HW,2013-01-26 00:02:00,
2013-01-26 01:07:00,41.1,33.1,29.66,SSW,203,0.8,2.6,73,0.00,,,0.00,WUHU216HW,2013-01-26 00:07:00,
2013-01-26 01:12:00,41.3,33.1,29.66,SW,225,2.4,2.4,73,0.00,,,0.00,WUHU216HW,2013-01-26 00:12:00,
2013-01-26 01:17:00,41.1,33.1,29.67,SSW,203,0.0,2.4,73,0.00,,,0.00,WUHU216HW,2013-01-26 00:17:00,
2013-01-26 01:22:00,41.3,33.3,29.67,SSW,203,0.0,0.0,73,0.00,,,0.00,WUHU216HW,2013-01-26 00:22:00,
2013-01-26 01:27:00,41.0,33.2,29.67,SSE,158,0.0,0.0,74,0.00,,,0.00,WUHU216HW,2013-01-26 00:27:00,
2013-01-26 01:32:00,40.8,33.1,29.68,SSE,158,0.0,1.1,74,0.00,,,0.00,WUHU216HW,2013-01-26 00:32:00,
2013-01-26 01:37:00,40.8,33.1,29.67,ESE,113,2.0,2.0,74,0.00,,,0.00,WUHU216HW,2013-01-26 00:37:00,
2013-01-26 01:42:00,40.6,33.2,29.67,NE,51,1.4,2.6,75,0.00,,,0.00,WUHU216HW,2013-01-26 00:42:00,
2013-01-26 01:47:00,40.2,32.5,29.67,ESE,113,1.5,2.6,74,0.00,,,0.00,WUHU216HW,2013-01-26 00:47:00,
2013-01-26 01:52:00,39.9,32.5,29.67,East,90,2.0,2.2,75,0.00,,,0.00,WUHU216HW,2013-01-26 00:52:00,
2013-01-26 01:57:00,39.7,32.4,29.67,East,80,2.3,3.1,75,0.00,,,0.00,WUHU216HW,2013-01-26 00:57:00,
2013-01-26 02:02:00,39.5,32.2,29.66,East,90,0.6,3.1,75,0.00,,,0.00,WUHU216HW,2013-01-26 01:02:00,
2013-01-26 02:07:00,39.9,32.2,29.67,NE,45,0.0,3.1,74,0.00,,,0.00,WUHU216HW,2013-01-26 01:07:00,
2013-01-26 02:12:00,40.6,32.6,29.67,ENE,68,4.6,4.6,71,0.00,,,0.00,WUHU216HW,2013-01-26 01:12:00,
2013-01-26 02:17:00,41.5,32.1,29.67,NE,45,3.5,4.6,69,0.00,,,0.00,WUHU216HW,2013-01-26 01:17:00,
2013-01-26 02:22:00,42.0,31.9,29.67,NE,45,3.1,3.5,67,0.00,,,0.00,WUHU216HW,2013-01-26 01:22:00,
2013-01-26 02:27:00,41.7,31.9,29.67,NE,45,0.0,3.1,68,0.00,,,0.00,WUHU216HW,2013-01-26 01:27:00,
2013-01-26 02:32:00,41.3,31.9,29.68,WNW,293,1.7,1.7,69,0.00,,,0.00,WUHU216HW,2013-01-26 01:32:00,
2013-01-26 02:37:00,40.8,31.8,29.68,SSE,158,0.0,1.7,70,0.00,,,0.00,WUHU216HW,2013-01-26 01:37:00,
2013-01-26 02:42:00,40.2,31.2,29.68,SSE,158,0.0,1.1,70,0.00,,,0.00,WUHU216HW,2013-01-26 01:42:00,
2013-01-26 02:47:00,39.9,31.5,29.67,SSE,158,0.0,0.0,72,0.00,,,0.00,WUHU216HW,2013-01-26 01:47:00,
2013-01-26 02:52:00,39.7,31.4,29.67,East,90,0.0,0.0,72,0.00,,,0.00,WUHU216HW,2013-01-26 01:52:00,
2013-01-26 02:57:00,39.5,31.5,29.68,ENE,68,0.0,0.0,73,0.00,,,0.00,WUHU216HW,2013-01-26 01:57:00,
2013-01-26 03:02:00,39.3,31.3,29.68,North,0,0.0,0.0,73,0.00,,,0.00,WUHU216HW,2013-01-26 02:02:00,
2013-01-26 03:07:00,39.5,31.2,29.68,ENE,68,4.6,4.6,72,0.00,,,0.00,WUHU216HW,2013-01-26 02:07:00,
2013-01-26 03:12:00,40.6,31.6,29.68,NNE,23,1.5,4.6,70,0.00,,,0.00,WUHU216HW,2013-01-26 02:12:00,
2013-01-26 03:17:00,40.8,31.8,29.68,WSW,248,0.0,2.4,70,0.00,,,0.00,WUHU216HW,2013-01-26 02:17:00,
2013-01-26 03:22:00,40.8,31.8,29.68,NNE,23,2.2,2.2,70,0.00,,,0.00,WUHU216HW,2013-01-26 02:22:00,
2013-01-26 03:27:00,40.2,31.2,29.68,NNE,23,0.0,2.2,70,0.00,,,0.00,WUHU216HW,2013-01-26 02:27:00,
2013-01-26 03:32:00,39.9,30.9,29.68,ENE,68,0.0,0.8,70,0.00,,,0.00,WUHU216HW,2013-01-26 02:32:00,
2013-01-26 03:37:00,39.7,31.4,29.68,North,11,1.6,1.7,72,0.00,,,0.00,WUHU216HW,2013-01-26 02:37:00,
2013-01-26 03:42:00,39.7,31.2,29.68,NE,45,2.9,2.9,72,0.00,,,0.00,WUHU216HW,2013-01-26 02:42:00,
2013-01-26 03:47:00,40.2,31.6,29.68,ENE,68,0.8,6.0,71,0.00,,,0.00,WUHU216HW,2013-01-26 02:47:00,
2013-01-26 03:52:00,40.6,31.6,29.68,North,0,0.8,6.0,70,0.00,,,0.00,WUHU216HW,2013-01-26 02:52:00,
2013-01-26 03:57:00,40.2,31.4,29.68,NE,45,3.8,3.8,71,0.00,,,0.00,WUHU216HW,2013-01-26 02:57:00,
2013-01-26 04:02:00,39.9,31.2,29.68,ENE,68,2.4,3.8,71,0.00,,,0.00,WUHU216HW,2013-01-26 03:02:00,
2013-01-26 04:07:00,40.2,31.6,29.67,NE,45,3.8,3.8,71,0.00,,,0.00,WUHU216HW,2013-01-26 03:07:00,
2013-01-26 04:12:00,40.6,31.6,29.67,NNE,23,0.0,3.8,70,0.00,,,0.00,WUHU216HW,2013-01-26 03:12:00,
2013-01-26 04:17:00,40.2,31.6,29.67,North,0,0.0,0.0,71,0.00,,,0.00,WUHU216HW,2013-01-26 03:17:00,
2013-01-26 04:22:00,39.7,31.4,29.67,SSE,158,0.0,0.0,72,0.00,,,0.00,WUHU216HW,2013-01-26 03:22:00,
2013-01-26 04:27:00,39.3,31.0,29.68,WSW,248,0.8,1.5,72,0.00,,,0.00,WUHU216HW,2013-01-26 03:27:00,
2013-01-26 04:32:00,39.3,31.3,29.68,South,180,1.1,1.5,73,0.00,,,0.00,WUHU216HW,2013-01-26 03:32:00,
2013-01-26 04:37:00,39.3,31.3,29.68,South,180,0.0,1.3,73,0.00,,,0.00,WUHU216HW,2013-01-26 03:37:00,
2013-01-26 04:42:00,39.0,31.3,29.68,WNW,293,0.0,0.0,74,0.00,,,0.00,WUHU216HW,2013-01-26 03:42:00,
2013-01-26 04:47:00,39.0,31.5,29.67,SSE,158,1.5,1.5,75,0.00,,,0.00,WUHU216HW,2013-01-26 03:47:00,
2013-01-26 04:52:00,38.8,31.5,29.68,West,270,0.0,1.5,75,0.00,,,0.00,WUHU216HW,2013-01-26 03:52:00,
2013-01-26 04:57:00,38.4,31.2,29.68,ESE,113,0.0,0.8,75,0.00,,,0.00,WUHU216HW,2013-01-26 03:57:00,
2013-01-26 05:02:00,38.4,31.2,29.68,South,180,0.0,1.3,75,0.00,,,0.00,WUHU216HW,2013-01-26 04:02:00,
2013-01-26 05:07:00,38.4,31.5,29.68,East,90,2.0,2.0,76,0.00,,,0.00,WUHU216HW,2013-01-26 04:07:00,
2013-01-26 05:12:00,38.4,31.5,29.68,ESE,113,1.1,2.0,76,0.00,,,0.00,WUHU216HW,2013-01-26 04:12:00,
2013-01-26 05:17:00,38.4,31.2,29.67,East,90,1.5,2.2,75,0.00,,,0.00,WUHU216HW,2013-01-26 04:17:00,
2013-01-26 05:22:00,38.3,31.0,29.68,ENE,68,0.6,2.2,75,0.00,,,0.00,WUHU216HW,2013-01-26 04:22:00,
2013-01-26 05:27:00,38.1,31.2,29.68,ESE,113,0.0,2.2,76,0.00,,,0.00,WUHU216HW,2013-01-26 04:27:00,
2013-01-26 05:32:00,37.9,31.0,29.68,NNW,338,5.8,5.8,75,0.00,,,0.00,WUHU216HW,2013-01-26 04:32:00,
2013-01-26 05:37:00,37.2,30.3,29.68,NNE,23,0.0,5.8,76,0.00,,,0.00,WUHU216HW,2013-01-26 04:37:00,
2013-01-26 05:42:00,37.0,30.1,29.68,SE,135,2.2,2.4,76,0.00,,,0.00,WUHU216HW,2013-01-26 04:42:00,
2013-01-26 05:47:00,37.2,30.6,29.68,SSE,158,0.0,2.2,77,0.00,,,0.00,WUHU216HW,2013-01-26 04:47:00,
2013-01-26 05:52:00,37.4,30.8,29.68,SSW,203,0.0,1.5,77,0.00,,,0.00,WUHU216HW,2013-01-26 04:52:00,
2013-01-26 05:57:00,37.4,31.0,29.68,ENE,68,0.0,0.8,77,0.00,,,0.00,WUHU216HW,2013-01-26 04:57:00,
2013-01-26 06:00:00,37.4,30.8,29.68,ENE,68,0.0,0.8,77,0.00,,,0.00,WUHU216HW,2013-01-26 05:00:00,
2013-01-26 06:01:00,37.4,30.8,29.68,ESE,113,0.0,0.8,77,0.00,,,0.00,WUHU216HW,2013-01-26 05:01:00,
2013-01-26 06:02:00,37.5,31.0,29.68,SE,135,0.0,0.8,77,0.00,,,0.00,WUHU216HW,2013-01-26 05:02:00,
2013-01-26 06:07:00,37.5,31.0,29.69,ENE,68,0.0,1.7,77,0.00,,,0.00,WUHU216HW,2013-01-26 05:07:00,
2013-01-26 06:12:00,37.5,31.0,29.69,ENE,68,0.0,1.7,77,0.00,,,0.00,WUHU216HW,2013-01-26 05:12:00,
2013-01-26 06:17:00,37.5,30.6,29.69,ENE,68,0.0,1.1,76,0.00,,,0.00,WUHU216HW,2013-01-26 05:17:00,
2013-01-26 06:22:00,37.5,30.6,29.69,ESE,113,1.5,1.5,76,0.00,,,0.00,WUHU216HW,2013-01-26 05:22:00,
2013-01-26 06:27:00,37.7,30.8,29.69,ENE,68,0.0,1.5,76,0.00,,,0.00,WUHU216HW,2013-01-26 05:27:00,
2013-01-26 06:32:00,38.1,31.0,29.69,East,90,0.0,1.5,76,0.00,,,0.00,WUHU216HW,2013-01-26 05:32:00,
2013-01-26 06:37:00,38.4,31.2,29.69,ESE,113,0.8,1.7,75,0.00,,,0.00,WUHU216HW,2013-01-26 05:37:00,
2013-01-26 06:42:00,38.8,31.2,29.69,ENE,68,2.4,2.4,74,0.00,,,0.00,WUHU216HW,2013-01-26 05:42:00,
2013-01-26 06:47:00,39.7,31.4,29.70,ENE,68,0.0,2.4,72,0.00,,,0.00,WUHU216HW,2013-01-26 05:47:00,
2013-01-26 06:52:00,39.9,31.5,29.70,NNE,23,0.0,2.0,72,0.00,,,0.00,WUHU216HW,2013-01-26 05:52:00,
2013-01-26 06:57:00,39.9,31.9,29.70,NNE,23,0.0,0.0,73,0.00,,,0.00,WUHU216HW,2013-01-26 05:57:00,
2013-01-26 07:02:00,39.5,31.9,29.70,North,0,0.0,0.0,74,0.00,,,0.00,WUHU216HW,2013-01-26 06:02:00,
2013-01-26 07:07:00,39.5,31.5,29.70,ESE,113,0.0,0.0,73,0.00,,,0.00,WUHU216HW,2013-01-26 06:07:00,
2013-01-26 07:12:00,39.5,31.5,29.70,ESE,113,0.0,0.0,73,0.00,,,0.00,WUHU216HW,2013-01-26 06:12:00,
2013-01-26 07:17:00,39.5,31.9,29.71,West,270,0.0,1.1,74,0.00,,,0.00,WUHU216HW,2013-01-26 06:17:00,
2013-01-26 07:22:00,39.3,32.0,29.71,SW,225,1.5,1.5,75,0.00,,,0.00,WUHU216HW,2013-01-26 06:22:00,
2013-01-26 07:27:00,39.0,31.7,29.71,South,180,0.0,1.5,75,0.00,,,0.00,WUHU216HW,2013-01-26 06:27:00,
2013-01-26 07:32:00,39.0,32.0,29.71,SSE,158,0.0,1.3,76,0.00,,,0.00,WUHU216HW,2013-01-26 06:32:00,
2013-01-26 07:37:00,39.3,32.4,29.71,SSE,158,0.0,1.5,76,0.00,,,0.00,WUHU216HW,2013-01-26 06:37:00,
2013-01-26 07:42:00,39.3,32.4,29.71,SW,225,0.8,1.5,76,0.00,,,0.00,WUHU216HW,2013-01-26 06:42:00,
2013-01-26 07:47:00,39.3,32.4,29.71,NW,315,0.0,1.3,76,0.00,,,0.00,WUHU216HW,2013-01-26 06:47:00,
2013-01-26 07:52:00,39.5,32.5,29.71,SSE,158,1.3,1.3,76,0.00,,,0.00,WUHU216HW,2013-01-26 06:52:00,
2013-01-26 07:57:00,39.7,32.7,29.71,SSW,203,0.0,1.3,76,0.00,,,0.00,WUHU216HW,2013-01-26 06:57:00,
2013-01-26 08:02:00,39.9,32.9,29.71,South,180,0.0,1.3,76,0.00,,,0.00,WUHU216HW,2013-01-26 07:02:00,
2013-01-26 08:07:00,40.2,33.2,29.72,SW,225,1.1,1.1,76,0.00,,,0.00,WUHU216HW,2013-01-26 07:07:00,
2013-01-26 08:12:00,40.4,33.4,29.72,South,180,0.0,1.1,76,0.00,,,0.00,WUHU216HW,2013-01-26 07:12:00,
2013-01-26 08:17:00,40.8,33.4,29.72,SW,225,1.5,1.5,75,0.00,,,0.00,WUHU216HW,2013-01-26 07:17:00,
2013-01-26 08:22:00,41.1,33.8,29.72,South,180,0.0,1.5,75,0.00,,,0.00,WUHU216HW,2013-01-26 07:22:00,
2013-01-26 08:27:00,41.3,33.9,29.72,NE,45,0.0,0.8,75,0.00,,,0.00,WUHU216HW,2013-01-26 07:27:00,
2013-01-26 08:32:00,41.7,34.3,29.72,SSW,203,0.0,0.8,75,0.00,,,0.00,WUHU216HW,2013-01-26 07:32:00,
2013-01-26 08:37:00,42.6,35.2,29.72,NNE,23,0.0,0.8,75,0.00,,,0.00,WUHU216HW,2013-01-26 07:37:00,
2013-01-26 08:42:00,43.5,35.7,29.72,WSW,248,0.0,0.0,74,0.00,,,0.00,WUHU216HW,2013-01-26 07:42:00,
2013-01-26 08:47:00,44.9,36.2,29.72,WSW,248,0.0,0.0,72,0.00,,,0.00,WUHU216HW,2013-01-26 07:47:00,
2013-01-26 08:52:00,44.9,35.3,29.72,SSE,158,0.0,2.2,69,0.00,,,0.00,WUHU216HW,2013-01-26 07:52:00,
2013-01-26 08:57:00,44.7,34.8,29.72,WSW,248,1.5,2.2,68,0.00,,,0.00,WUHU216HW,2013-01-26 07:57:00,
2013-01-26 09:02:00,44.7,34.4,29.72,SW,225,1.7,1.7,67,0.00,,,0.00,WUHU216HW,2013-01-26 08:02:00,
2013-01-26 09:07:00,44.7,34.0,29.72,SSE,158,2.2,2.2,66,0.00,,,0.00,WUHU216HW,2013-01-26 08:07:00,
2013-01-26 09:12:00,45.3,34.5,29.72,SSE,158,0.0,2.2,66,0.00,,,0.00,WUHU216HW,2013-01-26 08:12:00,
2013-01-26 09:17:00,45.6,34.5,29.72,WSW,248,1.3,1.7,65,0.00,,,0.00,WUHU216HW,2013-01-26 08:17:00,
2013-01-26 09:22:00,45.6,34.5,29.72,SW,225,1.5,1.5,65,0.00,,,0.00,WUHU216HW,2013-01-26 08:22:00,
2013-01-26 09:27:00,45.6,33.7,29.72,SW,225,2.6,2.9,63,0.00,,,0.00,WUHU216HW,2013-01-26 08:27:00,
2013-01-26 09:32:00,45.6,33.7,29.72,SSE,158,0.0,2.9,63,0.00,,,0.00,WUHU216HW,2013-01-26 08:32:00,
2013-01-26 09:37:00,46.0,33.7,29.72,WSW,248,0.8,2.0,62,0.00,,,0.00,WUHU216HW,2013-01-26 08:37:00,
2013-01-26 09:42:00,46.0,33.3,29.73,WSW,252,2.1,3.3,61,0.00,,,0.00,WUHU216HW,2013-01-26 08:42:00,
2013-01-26 09:47:00,46.0,33.3,29.73,WSW,248,1.7,3.3,61,0.00,,,0.00,WUHU216HW,2013-01-26 08:47:00,
2013-01-26 09:52:00,46.0,33.3,29.73,SSW,203,4.9,5.1,61,0.00,,,0.00,WUHU216HW,2013-01-26 08:52:00,
2013-01-26 09:57:00,46.2,33.4,29.73,SSW,203,2.0,5.1,61,0.00,,,0.00,WUHU216HW,2013-01-26 08:57:00,
2013-01-26 10:02:00,46.5,33.4,29.74,West,270,2.0,2.6,60,0.00,,,0.00,WUHU216HW,2013-01-26 09:02:00,
2013-01-26 10:07:00,47.1,33.5,29.74,SSE,158,1.3,4.2,59,0.00,,,0.00,WUHU216HW,2013-01-26 09:07:00,
2013-01-26 10:12:00,48.0,33.9,29.73,South,180,2.6,4.2,58,0.00,,,0.00,WUHU216HW,2013-01-26 09:12:00,
2013-01-26 10:17:00,49.2,34.1,29.74,South,180,2.2,3.1,56,0.00,,,0.00,WUHU216HW,2013-01-26 09:17:00,
2013-01-26 10:22:00,49.6,33.1,29.74,SW,225,2.4,3.1,53,0.00,,,0.00,WUHU216HW,2013-01-26 09:22:00,
2013-01-26 10:27:00,50.5,34.0,29.74,South,175,1.9,2.9,53,0.00,,,0.00,WUHU216HW,2013-01-26 09:27:00,
2013-01-26 10:32:00,50.0,33.0,29.74,South,180,2.7,4.0,52,0.00,,,0.00,WUHU216HW,2013-01-26 09:32:00,
2013-01-26 10:37:00,48.9,32.0,29.74,WSW,249,2.1,4.0,52,0.00,,,0.00,WUHU216HW,2013-01-26 09:37:00,
2013-01-26 10:42:00,48.5,32.5,29.74,West,270,1.7,3.8,54,0.00,,,0.00,WUHU216HW,2013-01-26 09:42:00,
2013-01-26 10:47:00,48.9,32.9,29.74,SW,225,2.4,2.6,54,0.00,,,0.00,WUHU216HW,2013-01-26 09:47:00,
2013-01-26 10:52:00,49.2,32.8,29.75,NW,315,0.0,2.4,53,0.00,,,0.00,WUHU216HW,2013-01-26 09:52:00,
2013-01-26 10:57:00,49.8,32.7,29.74,WNW,293,0.0,2.4,52,0.00,,,0.00,WUHU216HW,2013-01-26 09:57:00,
2013-01-26 11:02:00,49.8,32.9,29.75,North,0,0.0,1.3,52,0.00,,,0.00,WUHU216HW,2013-01-26 10:02:00,
2013-01-26 11:07:00,49.8,32.9,29.74,WNW,293,0.6,2.4,52,0.00,,,0.00,WUHU216HW,2013-01-26 10:07:00,
2013-01-26 11:12:00,50.3,33.4,29.74,SW,233,1.9,2.4,52,0.00,,,0.00,WUHU216HW,2013-01-26 10:12:00,
2013-01-26 11:17:00,51.4,34.3,29.74,ENE,68,0.0,2.0,52,0.00,,,0.00,WUHU216HW,2013-01-26 10:17:00,
2013-01-26 11:22:00,52.3,34.2,29.74,WNW,293,0.0,0.0,50,0.00,,,0.00,WUHU216HW,2013-01-26 10:22:00,
2013-01-26 11:27:00,51.4,32.3,29.74,NW,315,5.1,5.1,48,0.00,,,0.00,WUHU216HW,2013-01-26 10:27:00,
2013-01-26 11:32:00,50.5,32.1,29.74,West,270,2.2,5.1,49,0.00,,,0.00,WUHU216HW,2013-01-26 10:32:00,
2013-01-26 11:37:00,50.3,31.9,29.74,NNW,329,1.0,3.5,49,0.00,,,0.00,WUHU216HW,2013-01-26 10:37:00,
2013-01-26 11:42:00,50.3,32.6,29.74,West,270,2.4,2.4,50,0.00,,,0.00,WUHU216HW,2013-01-26 10:42:00,
2013-01-26 11:47:00,51.2,33.3,29.74,SSW,203,0.0,2.4,50,0.00,,,0.00,WUHU216HW,2013-01-26 10:47:00,
2013-01-26 11:52:00,52.3,33.1,29.74,WNW,293,3.0,3.1,48,0.00,,,0.00,WUHU216HW,2013-01-26 10:52:00,
2013-01-26 11:57:00,51.4,31.8,29.73,NW,315,4.4,4.4,47,0.00,,,0.00,WUHU216HW,2013-01-26 10:57:00,
2013-01-26 12:02:00,51.0,32.5,29.74,West,270,2.4,4.4,49,0.00,,,0.00,WUHU216HW,2013-01-26 11:02:00,
2013-01-26 12:07:00,50.9,32.4,29.74,NW,315,1.5,3.3,49,0.00,,,0.00,WUHU216HW,2013-01-26 11:07:00,
2013-01-26 12:12:00,50.7,32.2,29.74,South,180,0.0,2.2,49,0.00,,,0.00,WUHU216HW,2013-01-26 11:12:00,
2013-01-26 12:17:00,51.4,32.9,29.73,SSW,203,0.0,1.5,49,0.00,,,0.00,WUHU216HW,2013-01-26 11:17:00,
2013-01-26 12:22:00,51.4,33.4,29.74,South,169,2.3,2.4,50,0.00,,,0.00,WUHU216HW,2013-01-26 11:22:00,
2013-01-26 12:27:00,51.2,32.7,29.74,South,180,4.9,5.5,49,0.00,,,0.00,WUHU216HW,2013-01-26 11:27:00,
2013-01-26 12:32:00,51.0,33.1,29.74,South,180,2.4,5.5,50,0.00,,,0.00,WUHU216HW,2013-01-26 11:32:00,
2013-01-26 12:37:00,51.4,33.9,29.73,WSW,248,2.2,2.4,51,0.00,,,0.00,WUHU216HW,2013-01-26 11:37:00,
2013-01-26 12:42:00,51.2,33.3,29.74,SE,135,4.2,4.2,50,0.00,,,0.00,WUHU216HW,2013-01-26 11:42:00,
2013-01-26 12:47:00,51.0,32.5,29.74,SE,133,1.4,4.2,49,0.00,,,0.00,WUHU216HW,2013-01-26 11:47:00,
2013-01-26 12:52:00,50.9,32.9,29.74,WSW,248,1.1,4.0,50,0.00,,,0.00,WUHU216HW,2013-01-26 11:52:00,
2013-01-26 12:57:00,50.7,32.8,29.74,NNW,338,0.0,2.0,50,0.00,,,0.00,WUHU216HW,2013-01-26 11:57:00,
2013-01-26 13:02:00,50.7,32.8,29.73,SW,235,3.2,3.5,50,0.00,,,0.00,WUHU216HW,2013-01-26 12:02:00,
2013-01-26 13:07:00,50.3,33.4,29.74,WSW,237,4.4,4.6,52,0.00,,,0.00,WUHU216HW,2013-01-26 12:07:00,
2013-01-26 13:12:00,50.0,33.0,29.74,SSE,158,3.8,4.6,52,0.00,,,0.00,WUHU216HW,2013-01-26 12:12:00,
2013-01-26 13:17:00,50.0,33.0,29.74,South,176,3.9,4.9,52,0.00,,,0.00,WUHU216HW,2013-01-26 12:17:00,
2013-01-26 13:22:00,50.0,33.0,29.74,ESE,113,3.8,4.9,52,0.00,,,0.00,WUHU216HW,2013-01-26 12:22:00,
2013-01-26 13:27:00,49.8,32.9,29.74,SSE,163,1.6,6.9,52,0.00,,,0.00,WUHU216HW,2013-01-26 12:27:00,
2013-01-26 13:32:00,50.0,32.6,29.74,ESE,113,4.6,6.9,51,0.00,,,0.00,WUHU216HW,2013-01-26 12:32:00,
2013-01-26 13:37:00,50.0,33.0,29.74,SE,135,4.6,4.6,52,0.00,,,0.00,WUHU216HW,2013-01-26 12:37:00,
2013-01-26 13:42:00,50.1,33.2,29.74,SW,225,0.0,4.6,52,0.00,,,0.00,WUHU216HW,2013-01-26 12:42:00,
2013-01-26 13:47:00,50.1,33.6,29.74,SE,135,0.0,2.4,53,0.00,,,0.00,WUHU216HW,2013-01-26 12:47:00,
2013-01-26 13:52:00,50.1,33.6,29.74,SW,225,1.1,3.5,53,0.00,,,0.00,WUHU216HW,2013-01-26 12:52:00,
2013-01-26 13:57:00,50.1,33.6,29.74,WSW,248,0.0,3.5,53,0.00,,,0.00,WUHU216HW,2013-01-26 12:57:00,
2013-01-26 14:02:00,50.1,33.6,29.74,SE,135,2.2,3.5,53,0.00,,,0.00,WUHU216HW,2013-01-26 13:02:00,
2013-01-26 14:07:00,49.8,33.5,29.74,SW,225,0.8,3.5,53,0.00,,,0.00,WUHU216HW,2013-01-26 13:07:00,
2013-01-26 14:12:00,50.1,33.6,29.74,WNW,293,0.0,2.0,53,0.00,,,0.00,WUHU216HW,2013-01-26 13:12:00,
2013-01-26 14:17:00,50.1,33.2,29.74,ENE,68,2.2,2.2,52,0.00,,,0.00,WUHU216HW,2013-01-26 13:17:00,
2013-01-26 14:22:00,50.0,33.0,29.75,SSE,158,2.0,4.0,52,0.00,,,0.00,WUHU216HW,2013-01-26 13:22:00,
2013-01-26 14:27:00,49.8,32.9,29.75,SE,135,0.0,4.0,52,0.00,,,0.00,WUHU216HW,2013-01-26 13:27:00,
2013-01-26 14:33:00,49.8,32.9,29.74,ENE,68,1.5,3.8,52,0.00,,,0.00,WUHU216HW,2013-01-26 13:33:00,
2013-01-26 14:38:00,49.8,32.9,29.74,NE,45,3.5,3.8,52,0.00,,,0.00,WUHU216HW,2013-01-26 13:38:00,
2013-01-26 14:43:00,49.6,32.7,29.74,East,90,4.6,6.2,52,0.00,,,0.00,WUHU216HW,2013-01-26 13:43:00,
2013-01-26 14:48:00,49.6,32.7,29.74,NE,45,2.2,6.2,52,0.00,,,0.00,WUHU216HW,2013-01-26 13:48:00,
2013-01-26 14:53:00,49.6,32.7,29.75,ESE,113,2.2,3.5,52,0.00,,,0.00,WUHU216HW,2013-01-26 13:53:00,
2013-01-26 14:58:00,49.6,32.7,29.75,NE,45,3.1,3.1,52,0.00,,,0.00,WUHU216HW,2013-01-26 13:58:00,
2013-01-26 15:03:00,49.4,32.5,29.75,East,95,2.7,5.1,52,0.00,,,0.00,WUHU216HW,2013-01-26 14:03:00,
2013-01-26 15:08:00,49.2,32.3,29.75,ENE,74,3.1,5.1,52,0.00,,,0.00,WUHU216HW,2013-01-26 14:08:00,
2013-01-26 15:13:00,49.2,32.3,29.76,ESE,113,3.1,4.4,52,0.00,,,0.00,WUHU216HW,2013-01-26 14:13:00,
2013-01-26 15:18:00,49.2,32.3,29.75,ENE,77,2.8,6.0,52,0.00,,,0.00,WUHU216HW,2013-01-26 14:18:00,
2013-01-26 15:23:00,49.2,32.3,29.76,ESE,113,5.8,6.0,52,0.00,,,0.00,WUHU216HW,2013-01-26 14:23:00,
2013-01-26 15:28:00,49.1,32.6,29.75,ENE,73,2.2,5.8,53,0.00,,,0.00,WUHU216HW,2013-01-26 14:28:00,
2013-01-26 15:33:00,49.1,32.6,29.76,ESE,119,2.1,3.5,53,0.00,,,0.00,WUHU216HW,2013-01-26 14:33:00,
2013-01-26 15:38:00,49.1,32.6,29.76,ESE,113,5.5,5.5,53,0.00,,,0.00,WUHU216HW,2013-01-26 14:38:00,
2013-01-26 15:43:00,48.9,32.0,29.76,ESE,113,1.7,5.5,52,0.00,,,0.00,WUHU216HW,2013-01-26 14:43:00,
2013-01-26 15:48:00,48.9,32.4,29.76,East,90,2.8,3.8,53,0.00,,,0.00,WUHU216HW,2013-01-26 14:48:00,
2013-01-26 15:53:00,48.7,31.8,29.76,SSE,156,1.9,4.4,52,0.00,,,0.00,WUHU216HW,2013-01-26 14:53:00,
2013-01-26 15:58:00,48.7,31.8,29.76,ENE,68,5.5,5.5,52,0.00,,,0.00,WUHU216HW,2013-01-26 14:58:00,
2013-01-26 16:03:00,48.7,31.8,29.76,NE,45,2.9,5.5,52,0.00,,,0.00,WUHU216HW,2013-01-26 15:03:00,
2013-01-26 16:08:00,48.7,31.8,29.76,East,90,2.6,4.2,52,0.00,,,0.00,WUHU216HW,2013-01-26 15:08:00,
2013-01-26 16:13:00,48.7,31.8,29.76,NE,45,0.0,3.8,52,0.00,,,0.00,WUHU216HW,2013-01-26 15:13:00,
2013-01-26 16:18:00,48.7,31.8,29.76,NNE,23,0.0,3.8,52,0.00,,,0.00,WUHU216HW,2013-01-26 15:18:00,
2013-01-26 16:23:00,48.7,31.8,29.76,NE,45,1.3,1.5,52,0.00,,,0.00,WUHU216HW,2013-01-26 15:23:00,
2013-01-26 16:28:00,48.7,32.3,29.76,ENE,68,0.0,1.7,53,0.00,,,0.00,WUHU216HW,2013-01-26 15:28:00,
2013-01-26 16:33:00,48.5,31.6,29.76,East,90,4.0,4.0,52,0.00,,,0.00,WUHU216HW,2013-01-26 15:33:00,
2013-01-26 16:38:00,48.3,31.4,29.76,East,90,5.1,5.1,52,0.00,,,0.00,WUHU216HW,2013-01-26 15:38:00,
2013-01-26 16:43:00,48.0,31.1,29.77,East,90,2.9,5.1,52,0.00,,,0.00,WUHU216HW,2013-01-26 15:43:00,
2013-01-26 16:48:00,48.0,31.1,29.76,ESE,113,2.4,4.4,52,0.00,,,0.00,WUHU216HW,2013-01-26 15:48:00,
2013-01-26 16:53:00,47.8,30.9,29.76,ESE,107,2.0,3.5,52,0.00,,,0.00,WUHU216HW,2013-01-26 15:53:00,
2013-01-26 16:58:00,47.8,30.9,29.77,ENE,68,3.5,3.5,52,0.00,,,0.00,WUHU216HW,2013-01-26 15:58:00,
2013-01-26 17:03:00,47.6,30.8,29.77,ENE,68,3.9,4.6,52,0.00,,,0.00,WUHU216HW,2013-01-26 16:03:00,
2013-01-26 17:08:00,47.4,30.6,29.77,East,101,5.7,5.8,52,0.00,,,0.00,WUHU216HW,2013-01-26 16:08:00,
2013-01-26 17:13:00,47.3,30.4,29.78,ENE,68,4.0,5.8,52,0.00,,,0.00,WUHU216HW,2013-01-26 16:13:00,
2013-01-26 17:18:00,47.3,30.4,29.78,East,80,2.3,5.8,52,0.00,,,0.00,WUHU216HW,2013-01-26 16:18:00,
2013-01-26 17:23:00,47.1,30.3,29.78,East,91,2.3,5.8,52,0.00,,,0.00,WUHU216HW,2013-01-26 16:23:00,
2013-01-26 17:28:00,47.1,30.3,29.78,ESE,104,2.1,3.8,52,0.00,,,0.00,WUHU216HW,2013-01-26 16:28:00,
2013-01-26 17:33:00,46.9,30.1,29.78,NNE,25,2.0,4.2,52,0.00,,,0.00,WUHU216HW,2013-01-26 16:33:00,
2013-01-26 17:38:00,46.9,30.1,29.78,ENE,68,3.5,5.8,52,0.00,,,0.00,WUHU216HW,2013-01-26 16:38:00,
2013-01-26 17:43:00,46.7,29.9,29.79,ENE,68,7.3,10.5,52,0.00,,,0.00,WUHU216HW,2013-01-26 16:43:00,
2013-01-26 17:48:00,46.7,30.4,29.79,East,90,3.8,10.5,53,0.00,,,0.00,WUHU216HW,2013-01-26 16:48:00,
2013-01-26 17:53:00,46.5,30.2,29.79,SE,135,3.1,4.0,53,0.00,,,0.00,WUHU216HW,2013-01-26 16:53:00,
2013-01-26 17:58:00,46.5,30.2,29.80,ESE,113,5.1,5.1,53,0.00,,,0.00,WUHU216HW,2013-01-26 16:58:00,
2013-01-26 18:03:00,46.5,30.2,29.80,NE,41,3.9,5.1,53,0.00,,,0.00,WUHU216HW,2013-01-26 17:03:00,
2013-01-26 18:08:00,46.5,30.7,29.80,East,87,4.0,4.6,54,0.00,,,0.00,WUHU216HW,2013-01-26 17:08:00,
2013-01-26 18:13:00,46.2,30.3,29.81,SE,132,3.8,5.1,54,0.00,,,0.00,WUHU216HW,2013-01-26 17:13:00,
2013-01-26 18:18:00,46.2,30.3,29.81,ESE,113,5.1,6.7,54,0.00,,,0.00,WUHU216HW,2013-01-26 17:18:00,
2013-01-26 18:23:00,46.2,29.9,29.81,SSE,158,1.8,6.7,53,0.00,,,0.00,WUHU216HW,2013-01-26 17:23:00,
2013-01-26 18:28:00,46.0,29.7,29.81,ENE,73,3.8,5.8,53,0.00,,,0.00,WUHU216HW,2013-01-26 17:28:00,
2013-01-26 18:33:00,46.0,29.7,29.82,NE,54,3.9,4.6,53,0.00,,,0.00,WUHU216HW,2013-01-26 17:33:00,
2013-01-26 18:38:00,45.8,29.6,29.82,ENE,68,6.2,6.2,53,0.00,,,0.00,WUHU216HW,2013-01-26 17:38:00,
2013-01-26 18:43:00,45.6,29.9,29.82,NE,45,3.5,6.2,54,0.00,,,0.00,WUHU216HW,2013-01-26 17:43:00,
2013-01-26 18:48:00,45.6,29.9,29.83,East,90,4.0,4.0,54,0.00,,,0.00,WUHU216HW,2013-01-26 17:48:00,
2013-01-26 18:53:00,45.6,29.9,29.83,NE,45,3.8,4.0,54,0.00,,,0.00,WUHU216HW,2013-01-26 17:53:00,
2013-01-26 18:58:00,45.5,29.7,29.83,ENE,68,4.6,4.6,54,0.00,,,0.00,WUHU216HW,2013-01-26 17:58:00,
2013-01-26 19:04:00,45.5,29.7,29.84,ENE,68,6.2,6.2,54,0.00,,,0.00,WUHU216HW,2013-01-26 18:04:00,
2013-01-26 19:09:00,45.5,29.7,29.84,ENE,68,6.7,7.3,54,0.00,,,0.00,WUHU216HW,2013-01-26 18:09:00,
2013-01-26 19:14:00,45.5,29.7,29.84,NE,54,2.2,7.3,54,0.00,,,0.00,WUHU216HW,2013-01-26 18:14:00,
2013-01-26 19:19:00,45.5,30.0,29.84,NE,45,0.0,3.3,55,0.00,,,0.00,WUHU216HW,2013-01-26 18:19:00,
2013-01-26 19:25:00,45.1,29.8,29.84,East,90,3.1,3.3,55,0.00,,,0.00,WUHU216HW,2013-01-26 18:25:00,
2013-01-26 19:30:00,45.1,30.3,29.84,NE,45,2.4,3.5,56,0.00,,,0.00,WUHU216HW,2013-01-26 18:30:00,
2013-01-26 19:35:00,44.7,30.0,29.84,NE,41,1.3,3.5,56,0.00,,,0.00,WUHU216HW,2013-01-26 18:35:00,
2013-01-26 19:40:00,44.9,30.6,29.85,NE,49,1.9,2.9,57,0.00,,,0.00,WUHU216HW,2013-01-26 18:40:00,
2013-01-26 19:45:00,44.7,30.9,29.85,NE,45,3.5,3.5,58,0.00,,,0.00,WUHU216HW,2013-01-26 18:45:00,
2013-01-26 19:50:00,44.7,30.9,29.85,NE,45,2.1,3.5,58,0.00,,,0.00,WUHU216HW,2013-01-26 18:50:00,
2013-01-26 19:55:00,44.4,30.5,29.86,NE,47,3.7,4.0,58,0.00,,,0.00,WUHU216HW,2013-01-26 18:55:00,
2013-01-26 20:00:00,44.4,30.5,29.86,North,7,1.8,4.0,59,0.00,,,0.00,WUHU216HW,2013-01-26 19:00:00,
2013-01-26 20:05:00,44.7,30.7,29.86,NE,45,1.5,3.3,57,0.00,,,0.00,WUHU216HW,2013-01-26 19:05:00,
2013-01-26 20:10:00,44.9,30.6,29.87,North,0,1.5,3.3,57,0.00,,,0.00,WUHU216HW,2013-01-26 19:10:00,
2013-01-26 20:15:00,44.7,30.9,29.86,North,0,0.0,1.5,58,0.00,,,0.00,WUHU216HW,2013-01-26 19:15:00,
2013-01-26 20:20:00,44.6,31.1,29.87,North,0,1.7,1.7,59,0.00,,,0.00,WUHU216HW,2013-01-26 19:20:00,
2013-01-26 20:25:00,44.4,31.0,29.87,ENE,68,5.8,5.8,59,0.00,,,0.00,WUHU216HW,2013-01-26 19:25:00,
2013-01-26 20:30:00,44.7,30.4,29.87,NE,44,4.8,6.2,57,0.00,,,0.00,WUHU216HW,2013-01-26 19:30:00,
2013-01-26 20:35:00,44.9,30.1,29.87,ENE,65,3.8,6.2,56,0.00,,,0.00,WUHU216HW,2013-01-26 19:35:00,
2013-01-26 20:40:00,45.1,30.3,29.87,NE,45,1.5,4.2,56,0.00,,,0.00,WUHU216HW,2013-01-26 19:40:00,
2013-01-26 20:45:00,45.1,29.8,29.88,ENE,68,3.5,3.5,55,0.00,,,0.00,WUHU216HW,2013-01-26 19:45:00,
2013-01-26 20:50:00,45.1,30.3,29.88,NE,43,1.9,4.6,56,0.00,,,0.00,WUHU216HW,2013-01-26 19:50:00,
2013-01-26 20:55:00,44.9,30.1,29.88,NNE,23,2.6,4.6,56,0.00,,,0.00,WUHU216HW,2013-01-26 19:55:00,
2013-01-26 21:00:00,44.9,29.7,29.88,NE,55,3.8,4.4,55,0.00,,,0.00,WUHU216HW,2013-01-26 20:00:00,
2013-01-26 21:05:00,45.1,29.8,29.88,ENE,68,5.1,5.1,55,0.00,,,0.00,WUHU216HW,2013-01-26 20:05:00,
2013-01-26 21:10:00,45.1,29.4,29.88,ENE,68,4.6,8.9,54,0.00,,,0.00,WUHU216HW,2013-01-26 20:10:00,
2013-01-26 21:15:00,45.3,30.0,29.88,East,95,4.8,11.1,55,0.00,,,0.00,WUHU216HW,2013-01-26 20:15:00,
2013-01-26 21:20:00,45.3,30.0,29.88,NE,45,2.9,11.1,55,0.00,,,0.00,WUHU216HW,2013-01-26 20:20:00,
2013-01-26 21:25:00,45.3,30.0,29.89,ENE,68,6.0,6.4,55,0.00,,,0.00,WUHU216HW,2013-01-26 20:25:00,
2013-01-26 21:30:00,45.1,29.8,29.89,NE,45,3.8,6.4,55,0.00,,,0.00,WUHU216HW,2013-01-26 20:30:00,
2013-01-26 21:35:00,45.1,29.8,29.89,East,90,0.8,6.4,55,0.00,,,0.00,WUHU216HW,2013-01-26 20:35:00,
2013-01-26 21:40:00,45.1,29.8,29.89,WSW,248,1.5,2.0,55,0.00,,,0.00,WUHU216HW,2013-01-26 20:40:00,
2013-01-26 21:45:00,44.7,30.4,29.89,WSW,248,1.3,4.0,57,0.00,,,0.00,WUHU216HW,2013-01-26 20:45:00,
2013-01-26 21:50:00,44.6,30.7,29.89,SSW,197,2.0,4.0,58,0.00,,,0.00,WUHU216HW,2013-01-26 20:50:00,
2013-01-26 21:55:00,44.4,31.0,29.89,South,180,6.0,6.0,59,0.00,,,0.00,WUHU216HW,2013-01-26 20:55:00,
2013-01-26 22:00:00,44.2,31.2,29.89,SSE,158,1.5,6.0,60,0.00,,,0.00,WUHU216HW,2013-01-26 21:00:00,
2013-01-26 22:05:00,44.0,31.1,29.89,SSW,203,4.9,6.0,60,0.00,,,0.00,WUHU216HW,2013-01-26 21:05:00,
2013-01-26 22:10:00,43.8,31.2,29.90,SW,225,2.6,6.0,61,0.00,,,0.00,WUHU216HW,2013-01-26 21:10:00,
2013-01-26 22:15:00,43.8,31.2,29.90,West,270,0.0,2.9,61,0.00,,,0.00,WUHU216HW,2013-01-26 21:15:00,
2013-01-26 22:20:00,43.8,31.6,29.89,ENE,68,0.0,2.9,62,0.00,,,0.00,WUHU216HW,2013-01-26 21:20:00,
2013-01-26 22:25:00,43.8,31.6,29.90,WNW,293,0.0,1.1,62,0.00,,,0.00,WUHU216HW,2013-01-26 21:25:00,
2013-01-26 22:30:00,43.7,31.5,29.90,ESE,113,0.0,1.1,62,0.00,,,0.00,WUHU216HW,2013-01-26 21:30:00,
2013-01-26 22:35:00,43.5,31.3,29.90,East,90,0.0,1.1,62,0.00,,,0.00,WUHU216HW,2013-01-26 21:35:00,
2013-01-26 22:40:00,43.3,31.1,29.90,ESE,113,0.8,0.8,62,0.00,,,0.00,WUHU216HW,2013-01-26 21:40:00,
2013-01-26 22:45:00,43.3,31.5,29.90,NE,45,0.0,0.8,63,0.00,,,0.00,WUHU216HW,2013-01-26 21:45:00,
2013-01-26 22:50:00,42.9,31.5,29.90,NNW,327,1.6,1.7,64,0.00,,,0.00,WUHU216HW,2013-01-26 21:50:00,
2013-01-26 22:55:00,42.6,31.2,29.90,SW,225,1.9,2.2,64,0.00,,,0.00,WUHU216HW,2013-01-26 21:55:00,
2013-01-26 23:00:00,42.6,31.2,29.91,North,0,0.0,2.2,64,0.00,,,0.00,WUHU216HW,2013-01-26 22:00:00,
2013-01-26 23:05:00,42.6,31.6,29.91,North,0,0.0,1.3,65,0.00,,,0.00,WUHU216HW,2013-01-26 22:05:00,
2013-01-26 23:10:00,42.4,31.8,29.91,SSE,158,0.0,1.3,66,0.00,,,0.00,WUHU216HW,2013-01-26 22:10:00,
2013-01-26 23:15:00,42.0,31.5,29.91,SE,135,1.3,1.3,66,0.00,,,0.00,WUHU216HW,2013-01-26 22:15:00,
2013-01-26 23:20:00,41.7,31.5,29.91,SSE,158,1.5,1.5,67,0.00,,,0.00,WUHU216HW,2013-01-26 22:20:00,
2013-01-26 23:25:00,41.5,31.3,29.91,North,0,0.0,1.5,67,0.00,,,0.00,WUHU216HW,2013-01-26 22:25:00,
2013-01-26 23:30:00,41.1,31.4,29.91,ESE,113,0.8,0.8,68,0.00,,,0.00,WUHU216HW,2013-01-26 22:30:00,
2013-01-26 23:35:00,41.0,31.2,29.91,East,90,0.0,0.8,68,0.00,,,0.00,WUHU216HW,2013-01-26 22:35:00,
2013-01-26 23:40:00,40.8,31.4,29.91,ESE,113,1.3,1.3,69,0.00,,,0.00,WUHU216HW,2013-01-26 22:40:00,
2013-01-26 23:45:00,40.4,31.0,29.91,SE,135,0.0,1.3,69,0.00,,,0.00,WUHU216HW,2013-01-26 22:45:00,
2013-01-26 23:50:00,40.2,31.2,29.91,ENE,68,0.0,0.8,70,0.00,,,0.00,WUHU216HW,2013-01-26 22:50:00,
2013-01-26 23:55:00,40.2,31.6,29.91,ENE,68,0.0,0.8,71,0.00,,,0.00,WUHU216HW,2013-01-26 22:55:00,